Year,Month,Day,Hour,Minute,Value (Times are PST for temperature in C)
2012,04,08,00,00,3.40
2012,04,08,00,01,3.40
2012,04,08,00,02,3.40
2012,04,08,00,03,3.50
2012,04,08,00,04,3.50
2012,04,08,00,05,3.50
2012,04,08,00,06,3.50
2012,04,08,00,07,3.50
2012,04,08,00,08,3.40
2012,04,08,00,09,3.40
2012,04,08,00,10,3.30
2012,04,08,00,11,3.30
2012,04,08,00,12,3.40
2012,04,08,00,13,3.40
2012,04,08,00,14,3.40
2012,04,08,00,15,3.40
2012,04,08,00,16,3.40
2012,04,08,00,17,3.50
2012,04,08,00,18,3.50
2012,04,08,00,19,3.60
2012,04,08,00,20,3.60
2012,04,08,00,21,3.60
2012,04,08,00,22,3.60
2012,04,08,00,23,3.50
2012,04,08,00,24,3.50
2012,04,08,00,25,3.40
2012,04,08,00,26,3.40
2012,04,08,00,27,3.40
2012,04,08,00,28,3.30
2012,04,08,00,29,3.30
2012,04,08,00,30,3.30
2012,04,08,00,31,3.20
2012,04,08,00,32,3.20
2012,04,08,00,33,3.10
2012,04,08,00,34,3.10
2012,04,08,00,35,3.10
2012,04,08,00,36,3.00
2012,04,08,00,37,2.90
2012,04,08,00,38,2.90
2012,04,08,00,39,2.80
2012,04,08,00,40,2.80
2012,04,08,00,41,2.70
2012,04,08,00,42,2.70
2012,04,08,00,43,2.60
2012,04,08,00,44,2.50
2012,04,08,00,45,2.40
2012,04,08,00,46,2.40
2012,04,08,00,47,2.30
2012,04,08,00,48,2.30
2012,04,08,00,49,2.30
2012,04,08,00,50,2.20
2012,04,08,00,51,2.20
2012,04,08,00,52,2.20
2012,04,08,00,53,2.20
2012,04,08,00,54,2.10
2012,04,08,00,55,2.10
2012,04,08,00,56,2.10
2012,04,08,00,57,2.10
2012,04,08,00,58,2.20
2012,04,08,00,59,2.20
2012,04,08,01,00,2.30
2012,04,08,01,01,2.30
2012,04,08,01,02,2.40
2012,04,08,01,03,2.40
2012,04,08,01,04,2.50
2012,04,08,01,05,2.50
2012,04,08,01,06,2.50
2012,04,08,01,07,2.60
2012,04,08,01,08,2.60
2012,04,08,01,09,2.60
2012,04,08,01,10,2.50
2012,04,08,01,11,2.50
2012,04,08,01,12,2.50
2012,04,08,01,13,2.50
2012,04,08,01,14,2.50
2012,04,08,01,15,2.50
2012,04,08,01,16,2.50
2012,04,08,01,17,2.50
2012,04,08,01,18,2.50
2012,04,08,01,19,2.50
2012,04,08,01,20,2.50
2012,04,08,01,21,2.50
2012,04,08,01,22,2.40
2012,04,08,01,23,2.40
2012,04,08,01,24,2.40
2012,04,08,01,25,2.40
2012,04,08,01,26,2.30
2012,04,08,01,27,2.30
2012,04,08,01,28,2.30
2012,04,08,01,29,2.40
2012,04,08,01,30,2.40
2012,04,08,01,31,2.40
2012,04,08,01,32,2.40
2012,04,08,01,33,2.40
2012,04,08,01,34,2.40
2012,04,08,01,35,2.40
2012,04,08,01,36,2.40
2012,04,08,01,37,2.40
2012,04,08,01,38,2.40
2012,04,08,01,39,2.40
2012,04,08,01,40,2.40
2012,04,08,01,41,2.40
2012,04,08,01,42,2.40
2012,04,08,01,43,2.40
2012,04,08,01,44,2.30
2012,04,08,01,45,2.30
2012,04,08,01,46,2.30
2012,04,08,01,47,2.30
2012,04,08,01,48,2.30
2012,04,08,01,49,2.20
2012,04,08,01,50,2.20
2012,04,08,01,51,2.20
2012,04,08,01,52,2.10
2012,04,08,01,53,2.00
2012,04,08,01,54,2.00
2012,04,08,01,55,1.90
2012,04,08,01,56,1.90
2012,04,08,01,57,1.90
2012,04,08,01,58,1.80
2012,04,08,01,59,1.80
2012,04,08,02,00,1.80
2012,04,08,02,01,1.80
2012,04,08,02,02,1.80
2012,04,08,02,03,1.80
2012,04,08,02,04,1.80
2012,04,08,02,05,1.90
2012,04,08,02,06,1.90
2012,04,08,02,07,2.00
2012,04,08,02,08,2.00
2012,04,08,02,09,2.10
2012,04,08,02,10,2.10
2012,04,08,02,11,2.20
2012,04,08,02,12,2.20
2012,04,08,02,13,2.30
2012,04,08,02,14,2.30
2012,04,08,02,15,2.30
2012,04,08,02,16,2.40
2012,04,08,02,17,2.40
2012,04,08,02,18,2.40
2012,04,08,02,19,2.40
2012,04,08,02,20,2.40
2012,04,08,02,21,2.40
2012,04,08,02,22,2.50
2012,04,08,02,23,2.50
2012,04,08,02,24,2.50
2012,04,08,02,25,2.50
2012,04,08,02,26,2.50
2012,04,08,02,27,2.50
2012,04,08,02,28,2.40
2012,04,08,02,29,2.40
2012,04,08,02,30,2.40
2012,04,08,02,31,2.30
2012,04,08,02,32,2.30
2012,04,08,02,33,2.30
2012,04,08,02,34,2.30
2012,04,08,02,35,2.30
2012,04,08,02,36,2.30
2012,04,08,02,37,2.30
2012,04,08,02,38,2.30
2012,04,08,02,39,2.20
2012,04,08,02,40,2.20
2012,04,08,02,41,2.20
2012,04,08,02,42,2.20
2012,04,08,02,43,2.10
2012,04,08,02,44,2.10
2012,04,08,02,45,2.00
2012,04,08,02,46,2.00
2012,04,08,02,47,1.90
2012,04,08,02,48,1.90
2012,04,08,02,49,1.80
2012,04,08,02,50,1.80
2012,04,08,02,51,1.70
2012,04,08,02,52,1.70
2012,04,08,02,53,1.70
2012,04,08,02,54,1.60
2012,04,08,02,55,1.60
2012,04,08,02,56,1.60
2012,04,08,02,57,1.60
2012,04,08,02,58,1.60
2012,04,08,02,59,1.50
2012,04,08,03,00,1.50
2012,04,08,03,01,1.50
2012,04,08,03,02,1.50
2012,04,08,03,03,1.50
2012,04,08,03,04,1.40
2012,04,08,03,05,1.40
2012,04,08,03,06,1.40
2012,04,08,03,07,1.40
2012,04,08,03,08,1.40
2012,04,08,03,09,1.40
2012,04,08,03,10,1.40
2012,04,08,03,11,1.40
2012,04,08,03,12,1.40
2012,04,08,03,13,1.30
2012,04,08,03,14,1.30
2012,04,08,03,15,1.30
2012,04,08,03,16,1.30
2012,04,08,03,17,1.30
2012,04,08,03,18,1.20
2012,04,08,03,19,1.20
2012,04,08,03,20,1.20
2012,04,08,03,21,1.20
2012,04,08,03,22,1.20
2012,04,08,03,23,1.10
2012,04,08,03,24,1.10
2012,04,08,03,25,1.10
2012,04,08,03,26,1.10
2012,04,08,03,27,1.10
2012,04,08,03,28,1.00
2012,04,08,03,29,1.00
2012,04,08,03,30,1.00
2012,04,08,03,31,1.00
2012,04,08,03,32,0.90
2012,04,08,03,33,0.90
2012,04,08,03,34,0.90
2012,04,08,03,35,1.00
2012,04,08,03,36,1.00
2012,04,08,03,37,1.10
2012,04,08,03,38,1.10
2012,04,08,03,39,1.10
2012,04,08,03,40,1.10
2012,04,08,03,41,1.00
2012,04,08,03,42,1.00
2012,04,08,03,43,1.00
2012,04,08,03,44,1.00
2012,04,08,03,45,1.00
2012,04,08,03,46,1.00
2012,04,08,03,47,1.00
2012,04,08,03,48,1.10
2012,04,08,03,49,1.10
2012,04,08,03,50,1.00
2012,04,08,03,51,1.00
2012,04,08,03,52,1.00
2012,04,08,03,53,0.90
2012,04,08,03,54,0.90
2012,04,08,03,55,0.90
2012,04,08,03,56,0.80
2012,04,08,03,57,0.80
2012,04,08,03,58,0.80
2012,04,08,03,59,0.80
2012,04,08,04,00,0.70
2012,04,08,04,01,0.70
2012,04,08,04,02,0.80
2012,04,08,04,03,0.80
2012,04,08,04,04,0.80
2012,04,08,04,05,0.80
2012,04,08,04,06,0.90
2012,04,08,04,07,0.90
2012,04,08,04,08,1.00
2012,04,08,04,09,1.00
2012,04,08,04,10,1.10
2012,04,08,04,11,1.10
2012,04,08,04,12,1.10
2012,04,08,04,13,1.10
2012,04,08,04,14,1.10
2012,04,08,04,15,1.10
2012,04,08,04,16,1.10
2012,04,08,04,17,1.10
2012,04,08,04,18,1.10
2012,04,08,04,19,1.20
2012,04,08,04,20,1.20
2012,04,08,04,21,1.20
2012,04,08,04,22,1.20
2012,04,08,04,23,1.20
2012,04,08,04,24,1.20
2012,04,08,04,25,1.20
2012,04,08,04,26,1.20
2012,04,08,04,27,1.20
2012,04,08,04,28,1.20
2012,04,08,04,29,1.20
2012,04,08,04,30,1.20
2012,04,08,04,31,1.20
2012,04,08,04,32,1.10
2012,04,08,04,33,1.10
2012,04,08,04,34,1.10
2012,04,08,04,35,1.00
2012,04,08,04,36,1.00
2012,04,08,04,37,0.90
2012,04,08,04,38,0.90
2012,04,08,04,39,0.80
2012,04,08,04,40,0.80
2012,04,08,04,41,0.80
2012,04,08,04,42,0.80
2012,04,08,04,43,0.70
2012,04,08,04,44,0.70
2012,04,08,04,45,0.70
2012,04,08,04,46,0.70
2012,04,08,04,47,0.70
2012,04,08,04,48,0.70
2012,04,08,04,49,0.70
2012,04,08,04,50,0.70
2012,04,08,04,51,0.70
2012,04,08,04,52,0.70
2012,04,08,04,53,0.70
2012,04,08,04,54,0.70
2012,04,08,04,55,0.60
2012,04,08,04,56,0.70
2012,04,08,04,57,0.70
2012,04,08,04,58,0.60
2012,04,08,04,59,0.60
2012,04,08,05,00,0.60
2012,04,08,05,01,0.60
2012,04,08,05,02,0.60
2012,04,08,05,03,0.60
2012,04,08,05,04,0.60
2012,04,08,05,05,0.60
2012,04,08,05,06,0.60
2012,04,08,05,07,0.60
2012,04,08,05,08,0.60
2012,04,08,05,09,0.60
2012,04,08,05,10,0.60
2012,04,08,05,11,0.60
2012,04,08,05,12,0.60
2012,04,08,05,13,0.60
2012,04,08,05,14,0.50
2012,04,08,05,15,0.50
2012,04,08,05,16,0.50
2012,04,08,05,17,0.50
2012,04,08,05,18,0.40
2012,04,08,05,19,0.40
2012,04,08,05,20,0.40
2012,04,08,05,21,0.40
2012,04,08,05,22,0.40
2012,04,08,05,23,0.40
2012,04,08,05,24,0.50
2012,04,08,05,25,0.60
2012,04,08,05,26,0.60
2012,04,08,05,27,0.70
2012,04,08,05,28,0.80
2012,04,08,05,29,0.80
2012,04,08,05,30,0.80
2012,04,08,05,31,0.80
2012,04,08,05,32,0.80
2012,04,08,05,33,0.80
2012,04,08,05,34,0.80
2012,04,08,05,35,0.80
2012,04,08,05,36,0.80
2012,04,08,05,37,0.80
2012,04,08,05,38,0.80
2012,04,08,05,39,0.80
2012,04,08,05,40,0.90
2012,04,08,05,41,0.90
2012,04,08,05,42,0.90
2012,04,08,05,43,0.90
2012,04,08,05,44,0.90
2012,04,08,05,45,0.90
2012,04,08,05,46,0.90
2012,04,08,05,47,0.90
2012,04,08,05,48,0.90
2012,04,08,05,49,0.90
2012,04,08,05,50,0.80
2012,04,08,05,51,0.80
2012,04,08,05,52,0.80
2012,04,08,05,53,0.80
2012,04,08,05,54,0.80
2012,04,08,05,55,0.80
2012,04,08,05,56,0.80
2012,04,08,05,57,0.80
2012,04,08,05,58,0.70
2012,04,08,05,59,0.70
2012,04,08,06,00,0.70
2012,04,08,06,01,0.70
2012,04,08,06,02,0.70
2012,04,08,06,03,0.70
2012,04,08,06,04,0.70
2012,04,08,06,05,0.70
2012,04,08,06,06,0.80
2012,04,08,06,07,0.80
2012,04,08,06,08,0.80
2012,04,08,06,09,0.90
2012,04,08,06,10,1.00
2012,04,08,06,11,1.00
2012,04,08,06,12,1.00
2012,04,08,06,13,1.00
2012,04,08,06,14,1.00
2012,04,08,06,15,0.90
2012,04,08,06,16,0.90
2012,04,08,06,17,0.90
2012,04,08,06,18,0.90
2012,04,08,06,19,0.90
2012,04,08,06,20,0.80
2012,04,08,06,21,0.80
2012,04,08,06,22,0.90
2012,04,08,06,23,0.90
2012,04,08,06,24,0.90
2012,04,08,06,25,0.90
2012,04,08,06,26,0.90
2012,04,08,06,27,1.00
2012,04,08,06,28,1.00
2012,04,08,06,29,1.00
2012,04,08,06,30,1.10
2012,04,08,06,31,1.10
2012,04,08,06,32,1.20
2012,04,08,06,33,1.20
2012,04,08,06,34,1.20
2012,04,08,06,35,1.20
2012,04,08,06,36,1.20
2012,04,08,06,37,1.10
2012,04,08,06,38,1.10
2012,04,08,06,39,1.10
2012,04,08,06,40,1.10
2012,04,08,06,41,1.10
2012,04,08,06,42,1.00
2012,04,08,06,43,1.00
2012,04,08,06,44,1.00
2012,04,08,06,45,1.00
2012,04,08,06,46,1.00
2012,04,08,06,47,1.00
2012,04,08,06,48,1.10
2012,04,08,06,49,1.10
2012,04,08,06,50,1.20
2012,04,08,06,51,1.20
2012,04,08,06,52,1.20
2012,04,08,06,53,1.20
2012,04,08,06,54,1.20
2012,04,08,06,55,1.20
2012,04,08,06,56,1.20
2012,04,08,06,57,1.20
2012,04,08,06,58,1.20
2012,04,08,06,59,1.20
2012,04,08,07,00,1.30
2012,04,08,07,01,1.30
2012,04,08,07,02,1.40
2012,04,08,07,03,1.40
2012,04,08,07,04,1.50
2012,04,08,07,05,1.50
2012,04,08,07,06,1.50
2012,04,08,07,07,1.60
2012,04,08,07,08,1.60
2012,04,08,07,09,1.60
2012,04,08,07,10,1.60
2012,04,08,07,11,1.60
2012,04,08,07,12,1.60
2012,04,08,07,13,1.60
2012,04,08,07,14,1.60
2012,04,08,07,15,1.60
2012,04,08,07,16,1.60
2012,04,08,07,17,1.60
2012,04,08,07,18,1.60
2012,04,08,07,19,1.60
2012,04,08,07,20,1.60
2012,04,08,07,21,1.60
2012,04,08,07,22,1.50
2012,04,08,07,23,1.60
2012,04,08,07,24,1.60
2012,04,08,07,25,1.60
2012,04,08,07,26,1.60
2012,04,08,07,27,1.60
2012,04,08,07,28,1.60
2012,04,08,07,29,1.60
2012,04,08,07,30,1.60
2012,04,08,07,31,1.70
2012,04,08,07,32,1.70
2012,04,08,07,33,1.70
2012,04,08,07,34,1.70
2012,04,08,07,35,1.70
2012,04,08,07,36,1.80
2012,04,08,07,37,1.80
2012,04,08,07,38,1.90
2012,04,08,07,39,2.00
2012,04,08,07,40,2.10
2012,04,08,07,41,2.10
2012,04,08,07,42,2.20
2012,04,08,07,43,2.20
2012,04,08,07,44,2.20
2012,04,08,07,45,2.30
2012,04,08,07,46,2.30
2012,04,08,07,47,2.30
2012,04,08,07,48,2.30
2012,04,08,07,49,2.40
2012,04,08,07,50,2.40
2012,04,08,07,51,2.40
2012,04,08,07,52,2.40
2012,04,08,07,53,2.40
2012,04,08,07,54,2.40
2012,04,08,07,55,2.40
2012,04,08,07,56,2.40
2012,04,08,07,57,2.50
2012,04,08,07,58,2.50
2012,04,08,07,59,2.50
2012,04,08,08,00,2.50
2012,04,08,08,01,2.50
2012,04,08,08,02,2.60
2012,04,08,08,03,2.60
2012,04,08,08,04,2.60
2012,04,08,08,05,2.70
2012,04,08,08,06,2.70
2012,04,08,08,07,2.70
2012,04,08,08,08,2.70
2012,04,08,08,09,2.70
2012,04,08,08,10,2.80
2012,04,08,08,11,2.80
2012,04,08,08,12,2.80
2012,04,08,08,13,2.80
2012,04,08,08,14,2.80
2012,04,08,08,15,2.90
2012,04,08,08,16,2.90
2012,04,08,08,17,2.90
2012,04,08,08,18,3.00
2012,04,08,08,19,3.00
2012,04,08,08,20,3.00
2012,04,08,08,21,3.10
2012,04,08,08,22,3.10
2012,04,08,08,23,3.20
2012,04,08,08,24,3.20
2012,04,08,08,25,3.20
2012,04,08,08,26,3.30
2012,04,08,08,27,3.30
2012,04,08,08,28,3.30
2012,04,08,08,29,3.40
2012,04,08,08,30,3.40
2012,04,08,08,31,3.50
2012,04,08,08,32,3.60
2012,04,08,08,33,3.60
2012,04,08,08,34,3.70
2012,04,08,08,35,3.70
2012,04,08,08,36,3.80
2012,04,08,08,37,3.80
2012,04,08,08,38,3.90
2012,04,08,08,39,4.00
2012,04,08,08,40,4.00
2012,04,08,08,41,4.10
2012,04,08,08,42,4.20
2012,04,08,08,43,4.20
2012,04,08,08,44,4.30
2012,04,08,08,45,4.30
2012,04,08,08,46,4.40
2012,04,08,08,47,4.40
2012,04,08,08,48,4.50
2012,04,08,08,49,4.50
2012,04,08,08,50,4.60
2012,04,08,08,51,4.60
2012,04,08,08,52,4.70
2012,04,08,08,53,4.70
2012,04,08,08,54,4.80
2012,04,08,08,55,4.80
2012,04,08,08,56,4.80
2012,04,08,08,57,4.90
2012,04,08,08,58,4.90
2012,04,08,08,59,4.90
2012,04,08,09,00,5.00
2012,04,08,09,01,5.00
2012,04,08,09,02,5.10
2012,04,08,09,03,5.10
2012,04,08,09,04,5.10
2012,04,08,09,05,5.10
2012,04,08,09,06,5.20
2012,04,08,09,07,5.20
2012,04,08,09,08,5.20
2012,04,08,09,09,5.20
2012,04,08,09,10,5.30
2012,04,08,09,11,5.30
2012,04,08,09,12,5.30
2012,04,08,09,13,5.30
2012,04,08,09,14,5.40
2012,04,08,09,15,5.40
2012,04,08,09,16,5.40
2012,04,08,09,17,5.50
2012,04,08,09,18,5.50
2012,04,08,09,19,5.60
2012,04,08,09,20,5.60
2012,04,08,09,21,5.60
2012,04,08,09,22,5.70
2012,04,08,09,23,5.70
2012,04,08,09,24,5.70
2012,04,08,09,25,5.70
2012,04,08,09,26,5.80
2012,04,08,09,27,5.80
2012,04,08,09,28,5.80
2012,04,08,09,29,5.90
2012,04,08,09,30,5.90
2012,04,08,09,31,5.90
2012,04,08,09,32,6.00
2012,04,08,09,33,6.00
2012,04,08,09,34,6.10
2012,04,08,09,35,6.10
2012,04,08,09,36,6.20
2012,04,08,09,37,6.20
2012,04,08,09,38,6.30
2012,04,08,09,39,6.30
2012,04,08,09,40,6.30
2012,04,08,09,41,6.40
2012,04,08,09,42,6.40
2012,04,08,09,43,6.50
2012,04,08,09,44,6.50
2012,04,08,09,45,6.60
2012,04,08,09,46,6.60
2012,04,08,09,47,6.70
2012,04,08,09,48,6.70
2012,04,08,09,49,6.80
2012,04,08,09,50,6.80
2012,04,08,09,51,6.80
2012,04,08,09,52,6.90
2012,04,08,09,53,6.90
2012,04,08,09,54,7.00
2012,04,08,09,55,7.00
2012,04,08,09,56,7.10
2012,04,08,09,57,7.10
2012,04,08,09,58,7.20
2012,04,08,09,59,7.20
2012,04,08,10,00,7.30
2012,04,08,10,01,7.30
2012,04,08,10,02,7.30
2012,04,08,10,03,7.30
2012,04,08,10,04,7.40
2012,04,08,10,05,7.40
2012,04,08,10,06,7.40
2012,04,08,10,07,7.50
2012,04,08,10,08,7.50
2012,04,08,10,09,7.50
2012,04,08,10,10,7.50
2012,04,08,10,11,7.60
2012,04,08,10,12,7.60
2012,04,08,10,13,7.60
2012,04,08,10,14,7.60
2012,04,08,10,15,7.60
2012,04,08,10,16,7.60
2012,04,08,10,17,7.60
2012,04,08,10,18,7.60
2012,04,08,10,19,7.60
2012,04,08,10,20,7.60
2012,04,08,10,21,7.70
2012,04,08,10,22,7.70
2012,04,08,10,23,7.70
2012,04,08,10,24,7.70
2012,04,08,10,25,7.70
2012,04,08,10,26,7.70
2012,04,08,10,27,7.70
2012,04,08,10,28,7.70
2012,04,08,10,29,7.70
2012,04,08,10,30,7.70
2012,04,08,10,31,7.70
2012,04,08,10,32,7.70
2012,04,08,10,33,7.70
2012,04,08,10,34,7.70
2012,04,08,10,35,7.80
2012,04,08,10,36,7.80
2012,04,08,10,37,7.80
2012,04,08,10,38,7.80
2012,04,08,10,39,7.80
2012,04,08,10,40,7.80
2012,04,08,10,41,7.80
2012,04,08,10,42,7.80
2012,04,08,10,43,7.80
2012,04,08,10,44,7.90
2012,04,08,10,45,7.90
2012,04,08,10,46,7.90
2012,04,08,10,47,7.90
2012,04,08,10,48,7.90
2012,04,08,10,49,7.90
2012,04,08,10,50,8.00
2012,04,08,10,51,8.00
2012,04,08,10,52,8.00
2012,04,08,10,53,8.00
2012,04,08,10,54,8.00
2012,04,08,10,55,8.10
2012,04,08,10,56,8.10
2012,04,08,10,57,8.10
2012,04,08,10,58,8.10
2012,04,08,10,59,8.10
2012,04,08,11,00,8.10
2012,04,08,11,01,8.10
2012,04,08,11,02,8.20
2012,04,08,11,03,8.20
2012,04,08,11,04,8.20
2012,04,08,11,05,8.20
2012,04,08,11,06,8.20
2012,04,08,11,07,8.20
2012,04,08,11,08,8.20
2012,04,08,11,09,8.20
2012,04,08,11,10,8.20
2012,04,08,11,11,8.20
2012,04,08,11,12,8.20
2012,04,08,11,13,8.20
2012,04,08,11,14,8.20
2012,04,08,11,15,8.20
2012,04,08,11,16,8.20
2012,04,08,11,17,8.20
2012,04,08,11,18,8.20
2012,04,08,11,19,8.20
2012,04,08,11,20,8.20
2012,04,08,11,21,8.20
2012,04,08,11,22,8.20
2012,04,08,11,23,8.20
2012,04,08,11,24,8.20
2012,04,08,11,25,8.20
2012,04,08,11,26,8.20
2012,04,08,11,27,8.20
2012,04,08,11,28,8.20
2012,04,08,11,29,8.30
2012,04,08,11,30,8.30
2012,04,08,11,31,8.30
2012,04,08,11,32,8.30
2012,04,08,11,33,8.30
2012,04,08,11,34,8.30
2012,04,08,11,35,8.30
2012,04,08,11,36,8.40
2012,04,08,11,37,8.40
2012,04,08,11,38,8.40
2012,04,08,11,39,8.40
2012,04,08,11,40,8.40
2012,04,08,11,41,8.40
2012,04,08,11,42,8.40
2012,04,08,11,43,8.40
2012,04,08,11,44,8.40
2012,04,08,11,45,8.40
2012,04,08,11,46,8.40
2012,04,08,11,47,8.50
2012,04,08,11,48,8.50
2012,04,08,11,49,8.50
2012,04,08,11,50,8.50
2012,04,08,11,51,8.50
2012,04,08,11,52,8.60
2012,04,08,11,53,8.60
2012,04,08,11,54,8.50
2012,04,08,11,55,8.60
2012,04,08,11,56,8.60
2012,04,08,11,57,8.60
2012,04,08,11,58,8.60
2012,04,08,11,59,8.60
2012,04,08,12,00,8.60
2012,04,08,12,01,8.60
2012,04,08,12,02,8.60
2012,04,08,12,03,8.70
2012,04,08,12,04,8.70
2012,04,08,12,05,8.70
2012,04,08,12,06,8.80
2012,04,08,12,07,8.80
2012,04,08,12,08,8.90
2012,04,08,12,09,8.90
2012,04,08,12,10,8.90
2012,04,08,12,11,9.00
2012,04,08,12,12,9.00
2012,04,08,12,13,9.10
2012,04,08,12,14,9.10
2012,04,08,12,15,9.10
2012,04,08,12,16,9.10
2012,04,08,12,17,9.00
2012,04,08,12,18,9.00
2012,04,08,12,19,8.90
2012,04,08,12,20,8.90
2012,04,08,12,21,8.90
2012,04,08,12,22,8.90
2012,04,08,12,23,8.80
2012,04,08,12,24,8.80
2012,04,08,12,25,8.80
2012,04,08,12,26,8.90
2012,04,08,12,27,8.90
2012,04,08,12,28,8.90
2012,04,08,12,29,8.90
2012,04,08,12,30,8.90
2012,04,08,12,31,8.90
2012,04,08,12,32,8.90
2012,04,08,12,33,8.90
2012,04,08,12,34,8.90
2012,04,08,12,35,8.90
2012,04,08,12,36,8.90
2012,04,08,12,37,8.90
2012,04,08,12,38,8.90
2012,04,08,12,39,8.80
2012,04,08,12,40,8.80
2012,04,08,12,41,8.80
2012,04,08,12,42,8.80
2012,04,08,12,43,8.80
2012,04,08,12,44,8.80
2012,04,08,12,45,8.80
2012,04,08,12,46,8.80
2012,04,08,12,47,8.80
2012,04,08,12,48,8.70
2012,04,08,12,49,8.70
2012,04,08,12,50,8.70
2012,04,08,12,51,8.70
2012,04,08,12,52,8.70
2012,04,08,12,53,8.70
2012,04,08,12,54,8.70
2012,04,08,12,55,8.70
2012,04,08,12,56,8.70
2012,04,08,12,57,8.70
2012,04,08,12,58,8.70
2012,04,08,12,59,8.80
2012,04,08,13,00,8.80
2012,04,08,13,01,8.80
2012,04,08,13,02,8.80
2012,04,08,13,03,8.80
2012,04,08,13,04,8.80
2012,04,08,13,05,8.80
2012,04,08,13,06,8.80
2012,04,08,13,07,8.80
2012,04,08,13,08,8.80
2012,04,08,13,09,8.80
2012,04,08,13,10,8.80
2012,04,08,13,11,8.80
2012,04,08,13,12,8.70
2012,04,08,13,13,8.70
2012,04,08,13,14,8.70
2012,04,08,13,15,8.70
2012,04,08,13,16,8.80
2012,04,08,13,17,8.80
2012,04,08,13,18,8.80
2012,04,08,13,19,8.80
2012,04,08,13,20,8.80
2012,04,08,13,21,8.80
2012,04,08,13,22,8.80
2012,04,08,13,23,8.80
2012,04,08,13,24,8.80
2012,04,08,13,25,8.80
2012,04,08,13,26,8.90
2012,04,08,13,27,8.90
2012,04,08,13,28,8.90
2012,04,08,13,29,8.90
2012,04,08,13,30,8.90
2012,04,08,13,31,8.90
2012,04,08,13,32,8.90
2012,04,08,13,33,8.90
2012,04,08,13,34,8.90
2012,04,08,13,35,8.90
2012,04,08,13,36,8.90
2012,04,08,13,37,8.90
2012,04,08,13,38,8.90
2012,04,08,13,39,8.90
2012,04,08,13,40,8.90
2012,04,08,13,41,8.90
2012,04,08,13,42,8.90
2012,04,08,13,43,8.90
2012,04,08,13,44,8.90
2012,04,08,13,45,8.90
2012,04,08,13,46,8.90
2012,04,08,13,47,9.00
2012,04,08,13,48,9.00
2012,04,08,13,49,9.00
2012,04,08,13,50,9.00
2012,04,08,13,51,9.10
2012,04,08,13,52,9.10
2012,04,08,13,53,9.10
2012,04,08,13,54,9.10
2012,04,08,13,55,9.10
2012,04,08,13,56,9.10
2012,04,08,13,57,9.10
2012,04,08,13,58,9.10
2012,04,08,13,59,9.10
2012,04,08,14,00,9.10
2012,04,08,14,01,9.00
2012,04,08,14,02,9.00
2012,04,08,14,03,9.00
2012,04,08,14,04,9.00
2012,04,08,14,05,9.00
2012,04,08,14,06,9.00
2012,04,08,14,07,9.00
2012,04,08,14,08,9.00
2012,04,08,14,09,9.00
2012,04,08,14,10,9.00
2012,04,08,14,11,9.00
2012,04,08,14,12,9.00
2012,04,08,14,13,9.00
2012,04,08,14,14,9.10
2012,04,08,14,15,9.10
2012,04,08,14,16,9.10
2012,04,08,14,17,9.10
2012,04,08,14,18,9.10
2012,04,08,14,19,9.20
2012,04,08,14,20,9.20
2012,04,08,14,21,9.20
2012,04,08,14,22,9.20
2012,04,08,14,23,9.20
2012,04,08,14,24,9.20
2012,04,08,14,25,9.20
2012,04,08,14,26,9.20
2012,04,08,14,27,9.20
2012,04,08,14,28,9.20
2012,04,08,14,29,9.20
2012,04,08,14,30,9.20
2012,04,08,14,31,9.20
2012,04,08,14,32,9.20
2012,04,08,14,33,9.20
2012,04,08,14,34,9.20
2012,04,08,14,35,9.20
2012,04,08,14,36,9.10
2012,04,08,14,37,9.10
2012,04,08,14,38,9.10
2012,04,08,14,39,9.00
2012,04,08,14,40,9.00
2012,04,08,14,41,9.00
2012,04,08,14,42,9.00
2012,04,08,14,43,9.00
2012,04,08,14,44,9.00
2012,04,08,14,45,9.00
2012,04,08,14,46,9.00
2012,04,08,14,47,9.00
2012,04,08,14,48,9.00
2012,04,08,14,49,9.00
2012,04,08,14,50,9.00
2012,04,08,14,51,9.00
2012,04,08,14,52,9.00
2012,04,08,14,53,9.10
2012,04,08,14,54,9.10
2012,04,08,14,55,9.10
2012,04,08,14,56,9.10
2012,04,08,14,57,9.10
2012,04,08,14,58,9.10
2012,04,08,14,59,9.10
2012,04,08,15,00,9.10
2012,04,08,15,01,9.20
2012,04,08,15,02,9.20
2012,04,08,15,03,9.20
2012,04,08,15,04,9.20
2012,04,08,15,05,9.20
2012,04,08,15,06,9.30
2012,04,08,15,07,9.30
2012,04,08,15,08,9.30
2012,04,08,15,09,9.40
2012,04,08,15,10,9.40
2012,04,08,15,11,9.40
2012,04,08,15,12,9.50
2012,04,08,15,13,9.50
2012,04,08,15,14,9.60
2012,04,08,15,15,9.60
2012,04,08,15,16,9.60
2012,04,08,15,17,9.70
2012,04,08,15,18,9.70
2012,04,08,15,19,9.70
2012,04,08,15,20,9.70
2012,04,08,15,21,9.80
2012,04,08,15,22,9.80
2012,04,08,15,23,9.80
2012,04,08,15,24,9.80
2012,04,08,15,25,9.80
2012,04,08,15,26,9.90
2012,04,08,15,27,9.90
2012,04,08,15,28,9.90
2012,04,08,15,29,10.00
2012,04,08,15,30,10.00
2012,04,08,15,31,10.10
2012,04,08,15,32,10.10
2012,04,08,15,33,10.10
2012,04,08,15,34,10.20
2012,04,08,15,35,10.20
2012,04,08,15,36,10.30
2012,04,08,15,37,10.30
2012,04,08,15,38,10.30
2012,04,08,15,39,10.30
2012,04,08,15,40,10.30
2012,04,08,15,41,10.30
2012,04,08,15,42,10.30
2012,04,08,15,43,10.30
2012,04,08,15,44,10.30
2012,04,08,15,45,10.30
2012,04,08,15,46,10.30
2012,04,08,15,47,10.40
2012,04,08,15,48,10.40
2012,04,08,15,49,10.40
2012,04,08,15,50,10.50
2012,04,08,15,51,10.50
2012,04,08,15,52,10.50
2012,04,08,15,53,10.50
2012,04,08,15,54,10.50
2012,04,08,15,55,10.50
2012,04,08,15,56,10.50
2012,04,08,15,57,10.50
2012,04,08,15,58,10.50
2012,04,08,15,59,10.50
2012,04,08,16,00,10.50
2012,04,08,16,01,10.50
2012,04,08,16,02,10.50
2012,04,08,16,03,10.50
2012,04,08,16,04,10.50
2012,04,08,16,05,10.50
2012,04,08,16,06,10.60
2012,04,08,16,07,10.60
2012,04,08,16,08,10.60
2012,04,08,16,09,10.60
2012,04,08,16,10,10.60
2012,04,08,16,11,10.70
2012,04,08,16,12,10.70
2012,04,08,16,13,10.70
2012,04,08,16,14,10.70
2012,04,08,16,15,10.80
2012,04,08,16,16,10.80
2012,04,08,16,17,10.80
2012,04,08,16,18,10.80
2012,04,08,16,19,10.80
2012,04,08,16,20,10.80
2012,04,08,16,21,10.70
2012,04,08,16,22,10.70
2012,04,08,16,23,10.70
2012,04,08,16,24,10.70
2012,04,08,16,25,10.70
2012,04,08,16,26,10.70
2012,04,08,16,27,10.70
2012,04,08,16,28,10.70
2012,04,08,16,29,10.80
2012,04,08,16,30,10.80
2012,04,08,16,31,10.80
2012,04,08,16,32,10.80
2012,04,08,16,33,10.80
2012,04,08,16,34,10.80
2012,04,08,16,35,10.80
2012,04,08,16,36,10.80
2012,04,08,16,37,10.80
2012,04,08,16,38,10.90
2012,04,08,16,39,10.90
2012,04,08,16,40,10.80
2012,04,08,16,41,10.80
2012,04,08,16,42,10.80
2012,04,08,16,43,10.80
2012,04,08,16,44,10.80
2012,04,08,16,45,10.80
2012,04,08,16,46,10.80
2012,04,08,16,47,10.80
2012,04,08,16,48,10.90
2012,04,08,16,49,10.90
2012,04,08,16,50,10.90
2012,04,08,16,51,10.90
2012,04,08,16,52,10.90
2012,04,08,16,53,10.90
2012,04,08,16,54,10.90
2012,04,08,16,55,10.90
2012,04,08,16,56,10.90
2012,04,08,16,57,11.00
2012,04,08,16,58,11.00
2012,04,08,16,59,11.00
2012,04,08,17,00,11.00
2012,04,08,17,01,11.00
2012,04,08,17,02,11.00
2012,04,08,17,03,11.00
2012,04,08,17,04,11.10
2012,04,08,17,05,11.10
2012,04,08,17,06,11.10
2012,04,08,17,07,11.10
2012,04,08,17,08,11.10
2012,04,08,17,09,11.20
2012,04,08,17,10,11.20
2012,04,08,17,11,11.20
2012,04,08,17,12,11.20
2012,04,08,17,13,11.20
2012,04,08,17,14,11.20
2012,04,08,17,15,11.20
2012,04,08,17,16,11.20
2012,04,08,17,17,11.20
2012,04,08,17,18,11.20
2012,04,08,17,19,11.30
2012,04,08,17,20,11.30
2012,04,08,17,21,11.30
2012,04,08,17,22,11.30
2012,04,08,17,23,11.30
2012,04,08,17,24,11.30
2012,04,08,17,25,11.30
2012,04,08,17,26,11.30
2012,04,08,17,27,11.30
2012,04,08,17,28,11.30
2012,04,08,17,29,11.30
2012,04,08,17,30,11.30
2012,04,08,17,31,11.30
2012,04,08,17,32,11.30
2012,04,08,17,33,11.30
2012,04,08,17,34,11.30
2012,04,08,17,35,11.40
2012,04,08,17,36,11.40
2012,04,08,17,37,11.40
2012,04,08,17,38,11.40
2012,04,08,17,39,11.40
2012,04,08,17,40,11.40
2012,04,08,17,41,11.40
2012,04,08,17,42,11.40
2012,04,08,17,43,11.40
2012,04,08,17,44,11.40
2012,04,08,17,45,11.40
2012,04,08,17,46,11.40
2012,04,08,17,47,11.40
2012,04,08,17,48,11.30
2012,04,08,17,49,11.30
2012,04,08,17,50,11.30
2012,04,08,17,51,11.30
2012,04,08,17,52,11.30
2012,04,08,17,53,11.40
2012,04,08,17,54,11.40
2012,04,08,17,55,11.40
2012,04,08,17,56,11.40
2012,04,08,17,57,11.40
2012,04,08,17,58,11.40
2012,04,08,17,59,11.40